Location: Creola (historical)
(38.1334°N, 100.5024°W)
Time: 05:52:19
(UTC+00:00)

BREEZE-M DEB (TANK) - Pass Details

Date: 18 October 2021
Orbit: 411 x 18315 km, 53.0° (Epoch: 30 November)

Event Time Altitude Azimuth Distance (km) Brightness Sun altitude
Exits shadow 12:18:24 - 324° (NW) 2,178 5.0 -7.7°
Reaches altitude 10° 12:19:47 10° 337° (NNW) 1,593 4.4 -7.5°
Maximum altitude 12:22:28 27° 41° (NE) 1,182 4.4 -6.9°
Drops below altitude 10° 12:27:39 10° 101° (E) 3,188 8.1 -5.9°
Sets 12:33:10 0° 111° (ESE) 5,695 9.6 -4.9°
